• En España
  • Lista de países
  • Para 7 días
  • Temperatura del agua
  • Mapa Satelital
  • El tiempo en el mapa
  • Informadores
  • user-avatar
    Iniciar sesión

    Tiempo cada hora Luanda

    Hoy, 24 Enero, Miércoles

    Tiempo Temperatura Precipitaciones Viento Presión Humedad
    00:00 +28°C° 0,2 mm 3 mps 753 mmHg 85%
    01:00 +27°C° 0 mm 3 mps 753 mmHg 89%
    02:00 +27°C° 0,9 mm 3 mps 753 mmHg 89%
    03:00 +27°C° 0,9 mm 2 mps 753 mmHg 90%
    04:00 +26°C° 0,9 mm 2 mps 753 mmHg 90%
    05:00 +27°C° 0,3 mm 2 mps 753 mmHg 89%
    06:00 +27°C° 0,3 mm 2 mps 753 mmHg 88%
    07:00 +27°C° 0 mm 1 mps 754 mmHg 88%
    08:00 +27°C° 0,2 mm 1 mps 754 mmHg 85%
    09:00 +28°C° 0,2 mm 1 mps 754 mmHg 81%
    10:00 +29°C° 0,2 mm 1 mps 754 mmHg 78%
    11:00 +29°C° 0,1 mm 1 mps 754 mmHg 74%
    12:00 +30°C° 0,1 mm 1 mps 753 mmHg 70%
    13:00 +31°C° 0,1 mm 1 mps 753 mmHg 66%
    14:00 +31°C° 0 mm 1 mps 753 mmHg 65%
    15:00 +31°C° 0 mm 2 mps 752 mmHg 65%
    16:00 +31°C° 0 mm 2 mps 751 mmHg 65%
    17:00 +30°C° 0 mm 2 mps 751 mmHg 69%
    18:00 +29°C° 0 mm 2 mps 752 mmHg 74%
    19:00 +28°C° 0 mm 2 mps 752 mmHg 79%
    20:00 +28°C° 0 mm 2 mps 752 mmHg 81%
    21:00 +27°C° 0 mm 1 mps 753 mmHg 84%
    22:00 +27°C° 0 mm 1 mps 753 mmHg 86%
    23:00 +27°C° 0 mm 1 mps 753 mmHg 87%

    Mañana, 25 Enero, Jueves

    Tiempo Temperatura Precipitaciones Viento Presión Humedad
    00:00 +26°C° 0 mm 1 mps 753 mmHg 88%
    01:00 +24°C° 0 mm 0 mps 753 mmHg 89%
    02:00 +26°C° 0 mm 1 mps 753 mmHg 90%
    03:00 +26°C° 0 mm 1 mps 752 mmHg 90%
    04:00 +25°C° 0 mm 1 mps 752 mmHg 91%
    05:00 +25°C° 0 mm 1 mps 752 mmHg 90%
    06:00 +26°C° 0 mm 2 mps 753 mmHg 89%
    07:00 +26°C° 0 mm 2 mps 753 mmHg 88%
    08:00 +28°C° 0 mm 1 mps 753 mmHg 77%
    09:00 +31°C° 0 mm 1 mps 753 mmHg 66%
    10:00 +33°C° 0 mm 1 mps 753 mmHg 55%
    11:00 +34°C° 0 mm 1 mps 753 mmHg 51%
    12:00 +36°C° 0 mm 2 mps 752 mmHg 47%
    13:00 +37°C° 0 mm 3 mps 752 mmHg 43%
    14:00 +36°C° 0 mm 3 mps 751 mmHg 46%
    15:00 +35°C° 0 mm 4 mps 751 mmHg 49%
    16:00 +35°C° 0 mm 5 mps 750 mmHg 52%
    17:00 +33°C° 0 mm 5 mps 750 mmHg 59%
    18:00 +30°C° 0 mm 4 mps 751 mmHg 66%
    19:00 +29°C° 0 mm 4 mps 751 mmHg 72%
    20:00 +28°C° 0 mm 4 mps 752 mmHg 75%
    21:00 +28°C° 0 mm 3 mps 752 mmHg 78%
    22:00 +27°C° 0 mm 3 mps 753 mmHg 80%
    23:00 +27°C° 0 mm 3 mps 753 mmHg 82%

    Pasado mañana, 26 Enero, Viernes

    Tiempo Temperatura Precipitaciones Viento Presión Humedad
    00:00 +27°C° 0 mm 3 mps 753 mmHg 84%
    01:00 +27°C° 0 mm 2 mps 753 mmHg 85%
    02:00 +26°C° 0 mm 2 mps 752 mmHg 87%
    03:00 +26°C° 0 mm 2 mps 752 mmHg 88%
    04:00 +26°C° 0 mm 2 mps 752 mmHg 89%
    05:00 +26°C° 0 mm 2 mps 752 mmHg 88%
    06:00 +26°C° 0 mm 2 mps 752 mmHg 88%
    07:00 +26°C° 0 mm 2 mps 753 mmHg 87%
    08:00 +28°C° 0 mm 2 mps 753 mmHg 77%
    09:00 +30°C° 0 mm 2 mps 753 mmHg 68%
    10:00 +32°C° 0 mm 2 mps 754 mmHg 59%
    11:00 +34°C° 0 mm 3 mps 753 mmHg 54%
    12:00 +35°C° 0 mm 4 mps 752 mmHg 50%
    13:00 +37°C° 0 mm 4 mps 752 mmHg 46%
    14:00 +36°C° 0 mm 5 mps 751 mmHg 49%
    15:00 +35°C° 0 mm 6 mps 750 mmHg 53%
    16:00 +35°C° 0 mm 6 mps 749 mmHg 56%
    17:00 +33°C° 0 mm 6 mps 750 mmHg 62%
    18:00 +30°C° 0 mm 6 mps 750 mmHg 69%
    19:00 +29°C° 0 mm 6 mps 751 mmHg 75%
    20:00 +28°C° 0 mm 5 mps 752 mmHg 77%
    21:00 +28°C° 0 mm 5 mps 752 mmHg 78%
    22:00 +28°C° 0 mm 4 mps 753 mmHg 80%
    23:00 +27°C° 0 mm 4 mps 753 mmHg 82%

    27 Enero, Sábado

    Tiempo Temperatura Precipitaciones Viento Presión Humedad
    00:00 +27°C° 0 mm 4 mps 752 mmHg 83%
    01:00 +27°C° 0 mm 3 mps 752 mmHg 85%
    02:00 +26°C° 0 mm 3 mps 752 mmHg 86%
    03:00 +26°C° 0 mm 3 mps 752 mmHg 87%
    04:00 +26°C° 0 mm 2 mps 751 mmHg 89%
    05:00 +26°C° 0 mm 2 mps 752 mmHg 87%
    06:00 +26°C° 0 mm 2 mps 752 mmHg 86%
    07:00 +27°C° 0 mm 2 mps 753 mmHg 85%
    08:00 +28°C° 0 mm 2 mps 753 mmHg 76%
    09:00 +30°C° 0 mm 2 mps 753 mmHg 66%
    10:00 +32°C° 0 mm 2 mps 754 mmHg 56%
    11:00 +34°C° 0 mm 2 mps 753 mmHg 51%
    12:00 +35°C° 0 mm 3 mps 752 mmHg 46%
    13:00 +37°C° 0 mm 3 mps 751 mmHg 41%
    14:00 +36°C° 0 mm 4 mps 750 mmHg 45%
    15:00 +35°C° 0 mm 5 mps 750 mmHg 48%
    16:00 +35°C° 0 mm 5 mps 749 mmHg 52%
    17:00 +33°C° 0 mm 5 mps 750 mmHg 59%
    18:00 +30°C° 0 mm 5 mps 750 mmHg 66%
    19:00 +28°C° 0 mm 4 mps 751 mmHg 73%
    20:00 +28°C° 0 mm 4 mps 752 mmHg 76%
    21:00 +28°C° 0 mm 3 mps 752 mmHg 78%
    22:00 +27°C° 0 mm 3 mps 753 mmHg 80%
    23:00 +27°C° 0 mm 3 mps 753 mmHg 82%

    28 Enero, Domingo

    Tiempo Temperatura Precipitaciones Viento Presión Humedad
    00:00 +27°C° 0 mm 3 mps 752 mmHg 83%
    01:00 +27°C° 0 mm 2 mps 752 mmHg 85%
    02:00 +26°C° 0 mm 2 mps 752 mmHg 86%
    03:00 +26°C° 0 mm 2 mps 751 mmHg 86%
    04:00 +26°C° 0 mm 2 mps 751 mmHg 87%
    05:00 +26°C° 0 mm 2 mps 751 mmHg 86%
    06:00 +26°C° 0 mm 2 mps 752 mmHg 85%
    07:00 +26°C° 0 mm 2 mps 752 mmHg 85%
    08:00 +28°C° 0 mm 2 mps 752 mmHg 77%
    09:00 +30°C° 0 mm 2 mps 753 mmHg 69%
    10:00 +31°C° 0 mm 2 mps 753 mmHg 61%
    11:00 +34°C° 0 mm 2 mps 752 mmHg 55%
    12:00 +35°C° 0 mm 3 mps 751 mmHg 49%
    13:00 +36°C° 0 mm 3 mps 750 mmHg 44%
    14:00 +36°C° 0 mm 4 mps 750 mmHg 47%
    15:00 +35°C° 0 mm 5 mps 749 mmHg 51%
    16:00 +34°C° 0 mm 5 mps 749 mmHg 55%
    17:00 +32°C° 0 mm 5 mps 750 mmHg 61%
    18:00 +30°C° 0 mm 5 mps 750 mmHg 68%
    19:00 +28°C° 0 mm 4 mps 751 mmHg 74%
    20:00 +28°C° 0 mm 4 mps 752 mmHg 76%
    21:00 +27°C° 0 mm 4 mps 752 mmHg 78%
    22:00 +27°C° 0 mm 3 mps 753 mmHg 81%
    23:00 +27°C° 0 mm 3 mps 753 mmHg 82%

    29 Enero, Lunes

    Tiempo Temperatura Precipitaciones Viento Presión Humedad
    00:00 +27°C° 0 mm 2 mps 752 mmHg 83%
    01:00 +27°C° 0 mm 2 mps 752 mmHg 84%
    02:00 +26°C° 0 mm 2 mps 752 mmHg 85%
    03:00 +26°C° 0 mm 2 mps 751 mmHg 86%
    04:00 +26°C° 0 mm 2 mps 751 mmHg 87%
    05:00 +26°C° 0 mm 2 mps 752 mmHg 86%
    06:00 +26°C° 0 mm 2 mps 752 mmHg 85%
    07:00 +26°C° 0 mm 2 mps 752 mmHg 84%
    08:00 +28°C° 0 mm 2 mps 752 mmHg 75%
    09:00 +30°C° 0 mm 1 mps 753 mmHg 67%
    10:00 +32°C° 0 mm 1 mps 753 mmHg 58%
    11:00 +34°C° 0 mm 2 mps 752 mmHg 53%
    12:00 +35°C° 0 mm 3 mps 752 mmHg 48%
    13:00 +36°C° 0 mm 3 mps 751 mmHg 44%
    14:00 +35°C° 0 mm 4 mps 751 mmHg 48%
    15:00 +34°C° 0 mm 4 mps 750 mmHg 52%
    16:00 +33°C° 0 mm 5 mps 750 mmHg 56%
    17:00 +32°C° 0 mm 4 mps 750 mmHg 62%
    18:00 +30°C° 0 mm 4 mps 751 mmHg 68%
    19:00 +28°C° 0 mm 4 mps 751 mmHg 74%
    20:00 +28°C° 0 mm 4 mps 752 mmHg 76%
    21:00 +27°C° 0 mm 3 mps 753 mmHg 79%
    22:00 +27°C° 0 mm 3 mps 753 mmHg 81%
    23:00 +27°C° 0 mm 3 mps 753 mmHg 82%
    Mostrar más